Delta Virtual Airport Information Service

Philadelphia International Airport

ICAO: KPHL Country: United States
Latitude: 39.8719 Longitude: -75.2411
Latest Arrival : EDV5272 (KCVG-KPHL) Latest Departure : AAL1785 (KPHL-KPBI)


WX CaptureLIVE
Data provided by noaa.gov | Fetched at 00:48:56

METAR : KPHL 120454Z 31009KT 10SM BKN120 BKN250 12/M02 A3017 RMK AO2 SLP216 T01171017 401940089

TAF : KPHL 120318Z 1203/1306 35008KT P6SM FEW100 SCT250 FM120500 31007KT P6SM SCT250 FM121300 33010G16KT P6SM SCT250 FM121800 33012G18KT P6SM SCT060 FM122300 33010KT P6SM SCT250


Runway Data for KPHL
Data provided by openaviationdata.com

Runway ID Mag Var Hdg Length Elevation Surface ILS Freq ILS Id ILS Slope
8 -10 85° 4993 ft 36 ft Asphalt -- -- --
09L -10 85° 9488 ft 36 ft Concrete 108.95 IVII 3
09R -10 85° 10486 ft 36 ft Asphalt 109.3 IPHL 3
17 -10 169° 6503 ft 36 ft Concrete 108.75 IMYY 3
26 -10 265° 4993 ft 36 ft Asphalt 111.55 ILLH 3
27L -10 265° 10486 ft 36 ft Asphalt 109.3 IGLC 3
27R -10 265° 9488 ft 36 ft Concrete 108.95 IPDP 3
35 -10 349° 6503 ft 36 ft Concrete -- -- --

Philadelphia International Airport, United States
Use only for reference purposes



Not for navigational purposes.